STARLINK-32855, 62813

Orbit data source: Space-Track

STARLINK-32855, 62813 is a payload satellite owned by SpaceX/Seattle (US) in LEO that was launched on Fri, 24 Jan 2025 UTC via an FALCON 9 launch vehicle from the Air Force Western Test Range (AFWTR). Payload-class satellites include a variety of spacecraft equipped with specific instruments for various scientific and technological missions. These include communications satellites like Starlink; space stations such as the ISS; scientific satellites like the Hubble; Earth observation satellites from companies like Planet Labs, Umbra, and HawkEye 360; GPS; miniature CubeSats for education and research; and military/defense satellites.

Loading next visibility...
Identifier
62813, 2025-018H
Orbit
LEO
Country
Flag of USUS
Related business
Manufacturer
SpaceX/Seattle
Mission
Operational Commercial Communications
Bus & Motor
STARLINK V2M, Unknown motor
Mass
730 kg wet, ~700 kg dry
Launch date (UTC)
2025-01-24 (1 year ago)
Launch vehicle
FALCON 9
Launch site
Air Force Western Test Range (AFWTR)
Object type
Payload
Rocket body
Debris
Shape & HBR
Box + 2 Pan, 17.7 m
Radar Cross Section
33.884 m², Large (>1 m²)

Expand to show TLE details & history
Last TLE update: 7 hours ago

TLE from 7 hours ago
0 STARLINK-32855
1 62813U 25018H   26127.74176617  .00025577  00000-0  87189-3 0  9995
2 62813  53.1611  35.0139 0001393  75.1243 284.9912 15.30230892 72218
Epoch: 2026-05-07T17:48Z
TLE epoch observation values (Epoch: 2026-05-07T17:48:08.597Z)
Latitude
-0°
Longitude
-97.60547°
Altitude
475.776 km
Speed
7.629 km/s
True Right ascension
02h 20m 03s
True Declination
0° 00' 00"
Sunlit
Object was in daylight at epoch
Visualization orbit readout
Latitude
Unknown
Longitude
Unknown
Altitude
Unknown
Speed
Unknown
Apparent Right ascension
Unknown
Apparent Declination
Unknown
Sunlit
N/A
Visualization observer readout
Local Sidereal Time
08:38:52
Azimuth
Unknown
Elevation
Unknown
Doppler factor
Unknown
Orbital elements
Apogee altitude
476.334 km
Perigee altitude
474.424 km
Semi-major axis
6,853.516 km
Eccentricity
0.00014
Inclination
53.1611°
RAAN
35.0139°
Arg. of periapsis
75.1243°
True anomaly
284.97578°
Mean anomaly
284.9912°
Eccentric anomaly
284.98349°
Mean motion
3.82537 °/min
Orbital period
94.11 mins
BSTAR
0.00087189
Loading maneuver chart data...
Computing Atmospheric mass density...
Loading historical data...
Loading historical data...
Loading historical data...
Loading historical data...
Loading historical data...
Loading historical data...
Loading historical data...

Documentation

Showing up to 5 results
|